This is the latest recevied weather packets stored in our database for station/object K9VSK-9. If no packets are shown the sender has not sent any weather packets the latest 10 day(s).
| Time | Temp. | Humidity | Pressure | Rain* | Wind** | Luminosity | Snow |
|---|---|---|---|---|---|---|---|
| 1787956585 | 28.33° C | 55% | 1019.6 hPa | 0 mm | - | - | - |
| 1787956285 | 28.33° C | 54% | 1019.7 hPa | 0 mm | - | - | - |
| 1787955984 | 28.33° C | 56% | 1019.7 hPa | 0 mm | - | - | - |
| 1787955384 | 27.78° C | 59% | 1019.7 hPa | 0 mm | - | - | - |
| 1787955084 | 27.78° C | 57% | 1019.8 hPa | 0 mm | - | - | - |
| 1787954783 | 27.78° C | 57% | 1019.7 hPa | 0 mm | - | - | - |
| 1787954483 | 27.78° C | 58% | 1019.7 hPa | 0 mm | - | - | - |
| 1787954183 | 28.33° C | 56% | 1019.8 hPa | 0 mm | - | - | - |
| 1787953882 | 28.33° C | 54% | 1019.8 hPa | 0 mm | - | - | - |
| 1787953582 | 28.33° C | 57% | 1019.8 hPa | 0 mm | - | - | - |
| 1787953282 | 27.78° C | 56% | 1019.7 hPa | 0 mm | - | - | - |
| 1787952982 | 27.78° C | 59% | 1019.7 hPa | 0 mm | - | - | - |
| 1787952681 | 27.78° C | 55% | 1019.8 hPa | 0 mm | - | - | - |
| 1787952381 | 27.78° C | 52% | 1019.8 hPa | 0 mm | - | - | - |
| 1787951780 | 28.33° C | 56% | 1019.9 hPa | 0 mm | - | - | - |
| 1787951480 | 28.33° C | 54% | 1020 hPa | 0 mm | - | - | - |
| 1787951180 | 28.33° C | 56% | 1020 hPa | 0 mm | - | - | - |
| 1787950880 | 27.78° C | 56% | 1020.1 hPa | 0 mm | - | - | - |
| 1787950579 | 27.78° C | 59% | 1020 hPa | 0 mm | - | - | - |
| 1787950279 | 27.78° C | 57% | 1020.1 hPa | 0 mm | - | - | - |
| 1787949979 | 27.78° C | 56% | 1020.1 hPa | 0 mm | - | - | - |
| 1787949679 | 27.78° C | 60% | 1020.1 hPa | 0 mm | - | - | - |
| 1787949378 | 27.78° C | 58% | 1020.3 hPa | 0 mm | - | - | - |
| 1787949078 | 27.78° C | 57% | 1020.3 hPa | 0 mm | - | - | - |
| 1787948778 | 27.78° C | 56% | 1020.3 hPa | 0 mm | - | - | - |
* Rain latest hour (hover to see other rain measurements)
** Current wind speed in m/s (hover to see current wind gust speed)